Temporada 2023 · Ronda 1

Bahrain Grand Prix

2023-03-05 · Bahrain International Circuito · Bahrain · Bahrain Grand Prix · 57Lap · 308.238km
Red Bull 1:33:56.736
Victoria de equipo 43pt P1 · P2 1-2
Red Bull +11.987
Vuelta rápida
1:33.996 · L56
Abandono
3
Esteban Ocon L41 Charles Leclerc L39 Oscar Piastri L13
Clima
27°/31°
media aire/pista · seco · humedad 21%
Coche de seguridad
1
desplegado en la vuelta L41
Uso de neumáticos Dirección de carrera
Storylines · This Grand Prix & circuit
Más victorias en este GP
Lewis Hamilton activo 5 victorias
Sebastian Vettel 4 victorias
Conversión pole-victoria 11/22 50%
Most SC/VSC · all-time P31
Most lead changes · all-time P25
Circuito Info
57Lap 308.238km 22 carreras held (2004–) Récord de vuelta 55.404 · George Russell (2020)
Récords Watch · Active drivers ranked at this Grand Prix
P1 Lewis Hamilton 5 victorias · GP #1
P3 Fernando Alonso 3 victorias · → Sebastian Vettel -1
P4 Max Verstappen 2 victorias · → Fernando Alonso -1
P1 Lewis Hamilton 3 · GP #1
P1 Max Verstappen 3 · GP #1
P1 Fernando Alonso 18 salidas · GP #1
P1 Lewis Hamilton 18 salidas · GP #1
P4 Nico Hülkenberg 13 salidas · → Kimi Räikkönen -3
Carrera Trace · position by lap
VSC · vueltas 41–42 salida parada SG 1 6 11 16 21 26 31 36 41 46 51 56 FIN Verstappen · parada en boxes L14 Verstappen · parada en boxes L36 Verstappen VER Verstappen VER Pérez · parada en boxes L17 Pérez · parada en boxes L34 Pérez PER Pérez PER Alonso · parada en boxes L14 Alonso · parada en boxes L34 Alonso ALO Alonso ALO Sainz · parada en boxes L13 Sainz · parada en boxes L31 Sainz SAI Sainz SAI Hamilton · parada en boxes L12 Hamilton · parada en boxes L30 Hamilton HAM Hamilton HAM Stroll · parada en boxes L15 Stroll · parada en boxes L30 Stroll STR Stroll STR Russell · parada en boxes L13 Russell · parada en boxes L31 Russell RUS Russell RUS Bottas · parada en boxes L11 Bottas · parada en boxes L29 Bottas BOT Bottas BOT Gasly · parada en boxes L9 Gasly · parada en boxes L25 Gasly · parada en boxes L40 Gasly GAS Gasly GAS Albon · parada en boxes L11 Albon · parada en boxes L26 Albon · parada en boxes L40 Albon ALB Albon ALB Tsunoda · parada en boxes L10 Tsunoda · parada en boxes L26 Tsunoda · parada en boxes L40 Tsunoda TSU Tsunoda TSU Sargeant · parada en boxes L12 Sargeant · parada en boxes L30 Sargeant · parada en boxes L40 Sargeant SAR Sargeant SAR Magnussen · parada en boxes L15 Magnussen · parada en boxes L29 Magnussen · parada en boxes L40 Magnussen MAG Magnussen MAG de Vries · parada en boxes L11 de Vries · parada en boxes L27 de Vries DEV de Vries DEV Hülkenberg · parada en boxes L11 Hülkenberg · parada en boxes L26 Hülkenberg · parada en boxes L40 Hülkenberg · +15s sumado tras la carrera Hülkenberg HUL Hülkenberg HUL Zhou · parada en boxes L12 Zhou · parada en boxes L32 Zhou · parada en boxes L54 Zhou ZHO Zhou ZHO Norris · parada en boxes L10 Norris · parada en boxes L17 Norris · parada en boxes L27 Norris · parada en boxes L37 Norris · parada en boxes L47 Norris · parada en boxes L54 Norris NOR Norris NOR Ocon · parada en boxes L12 Ocon · parada en boxes L15 Ocon · parada en boxes L32 · sanción cumplida Ocon · abandono L41 Ocon OCO Ocon OCO Leclerc · parada en boxes L13 Leclerc · parada en boxes L33 Leclerc · abandono L39 Leclerc LEC Leclerc LEC Piastri · abandono L13 Piastri PIA Piastri PIA
SC·VSC parada en boxes sanción cumplida en boxes SG Parrilla de salida FIN clasificación oficial sanción sumada tras la carrera coche detenido posición en cada vuelta (desde 1996)
PosPilotoTeamParrillaVueltaTiempo / EstadoPuntos
1 1 Max Verstappen Red Bull 1 57 1:33:56.736 25
2 11 Sergio Pérez Red Bull 2 57 +11.987 18
3 14 Fernando Alonso Aston Martin 5 57 +38.637 15
4 55 Carlos Sainz Ferrari 4 57 +48.052 12
5 44 Lewis Hamilton Mercedes 7 57 +50.977 10
6 18 Lance Stroll Aston Martin 8 57 +54.502 8
7 63 George Russell Mercedes 6 57 +55.873 6
8 77 Valtteri Bottas Alfa Romeo 12 57 +1:12.647 4
9 10 Pierre Gasly Alpine F1 Team 20 57 +1:13.753 2
10 23 Alexander Albon Williams 15 57 +1:29.774 1
11 22 Yuki Tsunoda AlphaTauri 14 57 +1:30.870
12 2 Logan Sargeant Williams 16 56 +1.136
13 20 Kevin Magnussen Haas F1 Team 17 56 +16.757
14 21 Nyck de Vries AlphaTauri 19 56 +22.523
15 27 Nico Hülkenberg Haas F1 Team 10 56 +38.911
16 24 Guanyu Zhou FL Alfa Romeo 13 56 +39.649
17 4 Lando Norris McLaren 11 55 +6.636
R 31 Esteban Ocon Alpine F1 Team 9 41 Retired
R 16 Charles Leclerc Ferrari 3 39 Retired
R 81 Oscar Piastri McLaren 18 13 Retired
PosPilotoTeamQ1Q2Q3Diferencia con la pole
1 1 Max Verstappen Red Bull 1:31.295 1:30.503 1:29.708 POLE Q3
2 11 Sergio Pérez Red Bull 1:31.479 1:30.746 1:29.846 +0.138 Q3
3 16 Charles Leclerc Ferrari 1:31.094 1:30.282 1:30.000 +0.292 Q3
4 55 Carlos Sainz Ferrari 1:30.993 1:30.515 1:30.154 +0.446 Q3
5 14 Fernando Alonso Aston Martin 1:31.158 1:30.645 1:30.336 +0.628 Q3
6 63 George Russell Mercedes 1:31.057 1:30.507 1:30.340 +0.632 Q3
7 44 Lewis Hamilton Mercedes 1:31.543 1:30.513 1:30.384 +0.676 Q3
8 18 Lance Stroll Aston Martin 1:31.184 1:31.127 1:30.836 +1.128 Q3
9 31 Esteban Ocon Alpine F1 Team 1:31.508 1:30.914 1:30.984 +1.206 Q2
10 27 Nico Hülkenberg Haas F1 Team 1:31.204 1:30.809 +1.101 Q2
11 4 Lando Norris McLaren 1:31.652 1:31.381 +1.673 Q2
12 77 Valtteri Bottas Alfa Romeo 1:31.504 1:31.443 +1.735 Q2
13 24 Guanyu Zhou Alfa Romeo 1:31.615 1:31.473 +1.765 Q2
14 22 Yuki Tsunoda AlphaTauri 1:31.400 1:32.510 +1.692 Q1
15 23 Alexander Albon Williams 1:31.461 +1.753 Q1
16 2 Logan Sargeant Williams 1:31.652 +1.944 Q1
17 20 Kevin Magnussen Haas F1 Team 1:31.892 +2.184 Q1
18 81 Oscar Piastri McLaren 1:32.101 +2.393 Q1
19 21 Nyck de Vries AlphaTauri 1:32.121 +2.413 Q1
20 10 Pierre Gasly Alpine F1 Team 1:32.181 +2.473 Q1
Parrilla de salida
Oficial
Final grid as clasificado, including any desde el pit lane salidas. Source: Jolpica-F1. The arrow compares the grid slot with the clasificación classification; hover a drop to see the stewards document behind it.
No hay datos de esta sesión.
PosPilotoMejor vueltaDiferenciaVueltas
1 11 Sergio Pérez 1:32.758 21
2 14 Fernando Alonso 1:33.196 +0.438 22
3 1 Max Verstappen 1:33.375 +0.617 21
4 4 Lando Norris 1:34.165 +1.407 21
5 16 Charles Leclerc 1:34.257 +1.499 17
6 18 Lance Stroll 1:34.298 +1.540 17
7 20 Kevin Magnussen 1:34.402 +1.644 20
8 24 Guanyu Zhou 1:34.575 +1.817 18
9 77 Valtteri Bottas 1:34.689 +1.931 20
10 44 Lewis Hamilton 1:34.917 +2.159 13
11 63 George Russell 1:34.966 +2.208 20
12 81 Oscar Piastri 1:34.997 +2.239 24
13 22 Yuki Tsunoda 1:35.015 +2.257 20
14 27 Nico Hülkenberg 1:35.043 +2.285 22
15 31 Esteban Ocon 1:35.105 +2.347 20
16 21 Nyck de Vries 1:35.402 +2.644 25
17 10 Pierre Gasly 1:35.455 +2.697 22
18 2 Logan Sargeant 1:35.749 +2.991 24
19 23 Alexander Albon 1:36.018 +3.260 15
20 55 Carlos Sainz 1:36.072 +3.314 21
Classified by best lap · source OpenF1 (2023+)
PosPilotoMejor vueltaDiferenciaVueltas
1 14 Fernando Alonso 1:30.907 25
2 1 Max Verstappen 1:31.076 +0.169 24
3 11 Sergio Pérez 1:31.078 +0.171 26
4 16 Charles Leclerc 1:31.367 +0.460 26
5 27 Nico Hülkenberg 1:31.376 +0.469 25
6 18 Lance Stroll 1:31.450 +0.543 28
7 10 Pierre Gasly 1:31.475 +0.568 24
8 44 Lewis Hamilton 1:31.543 +0.636 27
9 4 Lando Norris 1:31.570 +0.663 27
10 24 Guanyu Zhou 1:31.586 +0.679 27
11 31 Esteban Ocon 1:31.608 +0.701 25
12 77 Valtteri Bottas 1:31.793 +0.886 28
13 63 George Russell 1:31.882 +0.975 25
14 55 Carlos Sainz 1:31.956 +1.049 28
15 81 Oscar Piastri 1:32.024 +1.117 27
16 20 Kevin Magnussen 1:32.110 +1.203 18
17 23 Alexander Albon 1:32.440 +1.533 28
18 22 Yuki Tsunoda 1:32.525 +1.618 27
19 21 Nyck de Vries 1:32.605 +1.698 28
20 2 Logan Sargeant 1:32.749 +1.842 29
Classified by best lap · source OpenF1 (2023+)
PosPilotoMejor vueltaDiferenciaVueltas
1 14 Fernando Alonso 1:32.340 13
2 1 Max Verstappen 1:32.345 +0.005 13
3 11 Sergio Pérez 1:32.446 +0.106 12
4 44 Lewis Hamilton 1:32.555 +0.215 17
5 16 Charles Leclerc 1:32.624 +0.284 21
6 63 George Russell 1:32.731 +0.391 17
7 18 Lance Stroll 1:32.919 +0.579 16
8 55 Carlos Sainz 1:32.945 +0.605 21
9 81 Oscar Piastri 1:33.045 +0.705 12
10 10 Pierre Gasly 1:33.064 +0.724 13
11 31 Esteban Ocon 1:33.116 +0.776 16
12 24 Guanyu Zhou 1:33.180 +0.840 13
13 4 Lando Norris 1:33.202 +0.862 16
14 20 Kevin Magnussen 1:33.381 +1.041 21
15 27 Nico Hülkenberg 1:33.423 +1.083 23
16 22 Yuki Tsunoda 1:33.475 +1.135 15
17 77 Valtteri Bottas 1:33.629 +1.289 14
18 2 Logan Sargeant 1:33.665 +1.325 15
19 23 Alexander Albon 1:33.882 +1.542 15
20 21 Nyck de Vries 1:34.082 +1.742 18
Classified by best lap · source OpenF1 (2023+)
#PilotoTiempo de vueltaVuelta
1 24 Guanyu Zhou 1:33.996 L56
2 10 Pierre Gasly 1:35.068 L42
3 4 Lando Norris 1:35.257 L50
4 10 Pierre Gasly 1:35.792 L44
5 4 Lando Norris 1:35.822 L51
6 10 Pierre Gasly 1:35.942 L43
7 2 Logan Sargeant 1:36.037 L42
8 10 Pierre Gasly 1:36.041 L46
9 10 Pierre Gasly 1:36.120 L47
10 4 Lando Norris 1:36.152 L52
Top 10 más rápida race vueltas — #1 is the más rápida lap of la carrera(FL).
Paradas · cómo se comparan
25s 30s 35s 40s 45s mediana 25.3s Carlos Sainz · L31 · 24.227s Sergio Pérez · L17 · 24.264s Max Verstappen · L14 · 24.289s Charles Leclerc · L13 · 24.345s Yuki Tsunoda · L26 · 24.372s George Russell · L31 · 24.406s Alexander Albon · L40 · 24.458s Carlos Sainz · L13 · 24.500s Lance Stroll · L30 · 24.639s Charles Leclerc · L33 · 24.644s Lewis Hamilton · L12 · 24.682s Lewis Hamilton · L30 · 24.690s Pierre Gasly · L40 · 24.736s Fernando Alonso · L34 · 24.869s Pierre Gasly · L25 · 24.879s Max Verstappen · L36 · 24.910s Alexander Albon · L26 · 24.920s Esteban Ocon · L12 · 24.966s Nyck de Vries · L11 · 25.018s Logan Sargeant · L40 · 25.047s Alexander Albon · L11 · 25.054s Sergio Pérez · L34 · 25.091s Kevin Magnussen · L40 · 25.125s Nyck de Vries · L27 · 25.234s Yuki Tsunoda · L10 · 25.267s Guanyu Zhou · L32 · 25.282s Kevin Magnussen · L29 · 25.344s Valtteri Bottas · L11 · 25.399s Kevin Magnussen · L15 · 25.439s Lance Stroll · L15 · 25.449s Logan Sargeant · L12 · 25.600s Valtteri Bottas · L29 · 25.643s Logan Sargeant · L30 · 25.670s Guanyu Zhou · L12 · 25.787s Fernando Alonso · L14 · 25.800s Yuki Tsunoda · L40 · 25.818s Pierre Gasly · L9 · 25.885s Nico Hülkenberg · L11 · 26.075s George Russell · L13 · 27.062s Nico Hülkenberg · L40 · 27.080s Guanyu Zhou · L54 · 30.167s Lando Norris · L47 · 30.710s Lando Norris · L54 · 31.494s Lando Norris · L10 · 32.766s Lando Norris · L37 · 33.236s Lando Norris · L27 · 33.467s Lando Norris · L17 · 33.661s Nico Hülkenberg · L26 · 37.769s Esteban Ocon · L15 · 41.462s Esteban Ocon · L32 · 44.518s · sanción cumplida
más rápida 24.227s Carlos Sainz más lenta 44.518s Esteban Ocon sanción cumplida tiempo de paso por el desde el pit lane — un punto por parada
PilotoParadaVueltaTiempoPaso por el desde el pit lane
10 Pierre Gasly 1 9 18:18:56 25.885s
4 Lando Norris 1 10 18:20:31 32.766s
22 Yuki Tsunoda 1 10 18:20:34 25.267s
23 Alexander Albon 1 11 18:22:12 25.054s
77 Valtteri Bottas 1 11 18:22:06 25.399s
27 Nico Hülkenberg 1 11 18:22:21 26.075s
21 Nyck de Vries 1 11 18:22:21 25.018s
2 Logan Sargeant 1 12 18:23:55 25.600s
44 Lewis Hamilton 1 12 18:23:40 24.682s
31 Esteban Ocon 1 12 18:23:50 24.966s
24 Guanyu Zhou 1 12 18:24:01 25.787s
63 George Russell 1 13 18:25:24 27.062s
55 Carlos Sainz 1 13 18:25:17 24.500s
16 Charles Leclerc 1 13 18:25:06 24.345s
1 Max Verstappen 1 14 18:26:35 24.289s
14 Fernando Alonso 1 14 18:27:02 25.800s
18 Lance Stroll 1 15 18:28:45 25.449s
20 Kevin Magnussen 1 15 18:29:10 25.439s
31 Esteban Ocon 2 15 18:29:11 41.462s
11 Sergio Pérez 1 17 18:31:42 24.264s
4 Lando Norris 2 17 18:32:38 33.661s
10 Pierre Gasly 2 25 18:45:48 24.879s
27 Nico Hülkenberg 2 26 18:47:41 37.769s
23 Alexander Albon 2 26 18:47:25 24.920s
22 Yuki Tsunoda 2 26 18:47:26 24.372s
21 Nyck de Vries 2 27 18:49:16 25.234s
4 Lando Norris 3 27 18:49:35 33.467s
20 Kevin Magnussen 2 29 18:52:40 25.344s
77 Valtteri Bottas 2 29 18:52:16 25.643s
2 Logan Sargeant 2 30 18:54:09 25.670s
44 Lewis Hamilton 2 30 18:53:36 24.690s
18 Lance Stroll 2 30 18:53:45 24.639s
55 Carlos Sainz 2 31 18:55:11 24.227s
63 George Russell 2 31 18:55:21 24.406s
24 Guanyu Zhou 2 32 18:57:31 25.282s
31 Esteban Ocon 3 32 18:58:03 44.518s
16 Charles Leclerc 2 33 18:58:16 24.644s
11 Sergio Pérez 2 34 18:59:45 25.091s
14 Fernando Alonso 2 34 19:00:09 24.869s
1 Max Verstappen 2 36 19:02:47 24.910s
4 Lando Norris 4 37 19:06:27 33.236s
23 Alexander Albon 3 40 19:10:51 24.458s
22 Yuki Tsunoda 3 40 19:10:53 25.818s
10 Pierre Gasly 3 40 19:10:52 24.736s
2 Logan Sargeant 3 40 19:11:05 25.047s
20 Kevin Magnussen 3 40 19:11:20 25.125s
27 Nico Hülkenberg 3 40 19:11:26 27.080s
4 Lando Norris 5 47 19:23:45 30.710s
24 Guanyu Zhou 3 54 19:34:31 30.167s
4 Lando Norris 6 54 19:35:35 31.494s
paradas
SG 10 20 30 40 50 L57
1
2
S13·+3
S22·+2
H22
11
2
S16·+3
S17·+2
H24
14
2
S13·+3
H20
H24
55
2
S12·+3
H18
H27
44
2
S11·+3
H18
H28
18
2
S14·+3
H15
H28
63
2
S12·+3
H18
H27
77
2
S10
H18
H29
10
3
S8
H16
H15
S18
23
3
S10
S15
H14
S18
22
3
S9
H16
H14
S18·+3
2
3
S11
S18
H10
S17
20
3
H14
H14
S11
S17
21
2
S10
H16
H30
27
3
S10·+3
H15
H14
S17·+3
24
3
S11
H20
S22·+3
S3·+3
4
6
S9
H7
S10·+3
M10
H10
S7·+4
S2·+4
31
3
S11·+3
H3
H17
H10
16
2
S12
H20
H7
81
0
S13
S Soft M Medium H Hard I Intermediate W Wet SC·VSC parada en boxes sanción cumplida en boxes
Carrera · ancho de barra = vueltas con ese juego, ·+N = montado usado con N vueltas previas · fuente OpenF1 (2023+)
Compuestos designados para este Gran Premio
C1 Duro C2 Medio C3 Blando
Pirelli designa tres de sus compuestos secos para cada prueba; cuanto mayor es el número C, más blando es el neumático. Documento FIA ↗
Más puestos ganados en pista
20
+21
P17→P13
24
+20
P13→P16
10
+17
P20→P9
21
+17
P19→P14
22
+15
P14→P11
2
+12
P16→P12
14
+11
P5→P3
77
+11
P12→P8
Más puestos perdidos
Guanyu Zhou −19 Lando Norris −18 Kevin Magnussen −16
Carrera · Suma de posiciones ganadas en pista vuelta a vuelta — se excluyen la vuelta de salida y las vueltas de boxes propias. Datos de vueltas de carrera desde 1996.
PilotoTipoVueltaCumplidaImpuestaMotivo
31 Esteban Ocon Time penalty 15 32 +5s INACCURATE GRID POSITION
Vuelta 15 · Cumplida 32 · +5s INACCURATE GRID POSITION
31 Esteban Ocon Time penalty 25 32 +10s SERVING TIME PENALTY INCORRECTLY
Vuelta 25 · Cumplida 32 · +10s SERVING TIME PENALTY INCORRECTLY
31 Esteban Ocon Time penalty 28 32 +5s SPEEDING IN THE PIT LANE
Vuelta 28 · Cumplida 32 · +5s SPEEDING IN THE PIT LANE
27 Nico Hülkenberg Time penalty 54 Tras la carrera +5s MULTIPLE TRACK LIMITS
Vuelta 54 · Cumplida Tras la carrera · +5s MULTIPLE TRACK LIMITS
27 Nico Hülkenberg Time penalty 57 Tras la carrera +10s MULTIPLE TRACK LIMITS
Vuelta 57 · Cumplida Tras la carrera · +10s MULTIPLE TRACK LIMITS
27 Nico Hülkenberg Black-and-white flag warning 49 TRACK LIMITS
Vuelta 49 TRACK LIMITS
4 Lando Norris Black-and-white flag warning 55 TRACK LIMITS
Vuelta 55 TRACK LIMITS
14 Fernando Alonso Vueltas eliminadas 35 TRACK LIMITS (PIT)
Vuelta 35 TRACK LIMITS (PIT)
Vuelta = vuelta en que se impuso la sanción · Cumplida = vuelta en que se cumplió en boxes (en blanco: se sumó al tiempo de carrera)
Time, drive-through and stop-go penalties come from race control messages (OpenF1, 2023+). Parrilla penalties never appear there — the stewards publish them as documents after the session — so they are worked back from the starting grid against the clasificación classification, which gives places actually lost rather than the figure written in the decision.
PilotoTipoVueltaCumplidaImpuestaMotivo
21 Nyck de Vries No further action Decision - Car 21 - Alleged unsafe release (No further action.) Documento FIA ↗
Decision - Car 21 - Alleged unsafe release (No further action.) Documento FIA ↗
Vuelta = vuelta en que se impuso la sanción · Cumplida = vuelta en que se cumplió en boxes (en blanco: se sumó al tiempo de carrera)
Time, drive-through and stop-go penalties come from race control messages (OpenF1, 2023+). Parrilla penalties never appear there — the stewards publish them as documents after the session — so they are worked back from the starting grid against the clasificación classification, which gives places actually lost rather than the figure written in the decision.
PilotoTipoVueltaCumplidaImpuestaMotivo
44 Lewis Hamilton No further action Decision - Car 44 - Wearing of Jewellery (No further action) Documento FIA ↗
Decision - Car 44 - Wearing of Jewellery (No further action) Documento FIA ↗
Vuelta = vuelta en que se impuso la sanción · Cumplida = vuelta en que se cumplió en boxes (en blanco: se sumó al tiempo de carrera)
Time, drive-through and stop-go penalties come from race control messages (OpenF1, 2023+). Parrilla penalties never appear there — the stewards publish them as documents after the session — so they are worked back from the starting grid against the clasificación classification, which gives places actually lost rather than the figure written in the decision.
DocTítuloAsuntoPublished(CET)
Event Notes - Circuito Map ↗ 2023-03-01 09:45
2023-03-01 09:45 CET
Carrera Director's Event Notes ↗ 2023-03-02 12:16
2023-03-02 12:16 CET
Event Notes - Red Zone and Pirelli Preview ↗ 2023-03-02 12:21
2023-03-02 12:21 CET
Car Display Procedure ↗ 2023-03-03 08:58
2023-03-03 08:58 CET
Initial Scrutineering ↗ 2023-03-03 10:33
2023-03-03 10:33 CET
Entry List ↗ 2023-03-03 12:05
2023-03-03 12:05 CET
Decision - Car 44 - Wearing of Jewellery ↗ 44 Lewis Hamilton 2023-03-03 12:05
44 Lewis Hamilton 2023-03-03 12:05 CET
Event Notes - Pit Lane Drawing ↗ 2023-03-03 12:28
2023-03-03 12:28 CET
New PU elements for this Event ↗ 2023-03-03 12:43
2023-03-03 12:43 CET
New RNCs for this Event ↗ 2023-03-03 12:44
2023-03-03 12:44 CET
P1 Classification ↗ 2023-03-03 14:19
2023-03-03 14:19 CET
P2 Classification ↗ 2023-03-03 17:25
2023-03-03 17:25 CET
Summons - Car 21 - Alleged unsafe release ↗ 21 Nyck de Vries 2023-03-03 17:30
21 Nyck de Vries 2023-03-03 17:30 CET
Summons - Car 4 - Alleged unsafe release of car 21 ↗ 4 Lando Norris 2023-03-03 17:30
4 Lando Norris 2023-03-03 17:30 CET
Decision - Car 21 - Alleged unsafe release ↗ 21 Nyck de Vries 2023-03-03 18:11
21 Nyck de Vries 2023-03-03 18:11 CET
Carrera Director's Note - SC2 - SC1 Time ↗ 2023-03-03 18:29
2023-03-03 18:29 CET
Carrera Director's Note - P3 Neumáticos ↗ 2023-03-03 18:33
2023-03-03 18:33 CET
P1 and P2 scrutineering ↗ 2023-03-03 18:53
2023-03-03 18:53 CET
Carrera Director's Event Notes V2 ↗ 2023-03-03 19:51
2023-03-03 19:51 CET
P3 Classification ↗ 2023-03-04 13:50
2023-03-04 13:50 CET
Post-Clasificación Procedure ↗ 2023-03-04 14:35
2023-03-04 14:35 CET
Clasificación Deleted Vuelta Times ↗ 2023-03-04 17:25
2023-03-04 17:25 CET
Provisional Clasificación Classification ↗ 2023-03-04 17:30
2023-03-04 17:30 CET
Offence - Car 10 - Pit lane speeding ↗ 10 Pierre Gasly 2023-03-04 17:31
10 Pierre Gasly 2023-03-04 17:31 CET
P3 and Clasificación scrutineering ↗ 2023-03-04 20:06
2023-03-04 20:06 CET
Final Clasificación Classification ↗ 2023-03-04 20:15
2023-03-04 20:15 CET
Provisional Starting Parrilla ↗ 2023-03-04 20:20
2023-03-04 20:20 CET
Final Starting Parrilla ↗ 2023-03-05 12:02
2023-03-05 12:02 CET
Parts and parameters been replaced or changed during the Parc Fermé ↗ 2023-03-05 12:02
2023-03-05 12:02 CET
Pre-Carrera Procedure ↗ 2023-03-05 12:31
2023-03-05 12:31 CET
Post-Carrera Procedure ↗ 2023-03-05 12:42
2023-03-05 12:42 CET
New PU elements for this Event, Parc Fermé issue ↗ 2023-03-05 13:50
2023-03-05 13:50 CET
Final Starting Parrilla ↗ 2023-03-05 14:00
2023-03-05 14:00 CET
New PU elements for this Event, Parc Fermé issue ↗ 2023-03-05 14:31
2023-03-05 14:31 CET
Parts and parameters been replaced or changed during the Parc Fermé ↗ 2023-03-05 14:34
2023-03-05 14:34 CET
Offence - Car 31 - Inaccurate Start Position ↗ 31 Esteban Ocon 2023-03-05 18:01
31 Esteban Ocon 2023-03-05 18:01 CET
Offence - Car 31 - Pit lane speeding ↗ 31 Esteban Ocon 2023-03-05 18:02
31 Esteban Ocon 2023-03-05 18:02 CET
Offence - Car 31 - Failure to Serve a Penalty ↗ 31 Esteban Ocon 2023-03-05 18:02
31 Esteban Ocon 2023-03-05 18:02 CET
Provisional Carrera Classification ↗ 2023-03-05 18:11
2023-03-05 18:11 CET
Carrera Deleted Vuelta Times ↗ 2023-03-05 18:25
2023-03-05 18:25 CET
Offence - Car 27 - Leaving the Track Five Times ↗ 27 Nico Hülkenberg 2023-03-05 18:27
27 Nico Hülkenberg 2023-03-05 18:27 CET
Offence - Car 27 - Leaving the Track Multiple Times ↗ 27 Nico Hülkenberg 2023-03-05 18:27
27 Nico Hülkenberg 2023-03-05 18:27 CET
Carrera scrutineering ↗ 2023-03-05 20:32
2023-03-05 20:32 CET
Final Carrera Classification ↗ 2023-03-05 20:40
2023-03-05 20:40 CET
Campeonato Puntos ↗ 2023-03-05 20:45
2023-03-05 20:45 CET
FIA official decisions and documents (fia.com) · PDF original PDF links
Record Basis · Calculation basis
Carrera order is the final classification(post-race penalties applied) · clasificación session data 2003+ · lap times 1996+ · pit stops 2012+ (pit-lane transit, not stationary time) · Abandono = Finished(Finished·+N Vueltas) non-Finished statuses
Fuentes de datos: Jolpica-F1 (Ergast compatible API) · weather·Dirección de carrera OpenF1 (2023+) · Last fetched: 2026-09-05 14:15